Probability
0 0 0 0 0 0 0 0 0 0 0 0 0 0 0 0 0 0 0 0 0 0 0 0 0 0 0 0 0 0 0 0 0 0 0 0 0 0 0 0 0 0 0
0 0 0 0 0 0 0 0 0 0 0 0 0 0 0 0 0 0 0 0 0 0 0 0 0 0 0 0 0 0 0 0 0 0 0 0 0 0 0 0 0 0 0
0 0 0 0 0 0 0 0 0 0 0 0 0 0 0 0 0 0 0 0 0 0 0 0 0 0 0 0 0 0 0 0 0 0 0 0 0 0 0 0 0 0 0
0 0 0 0 0 0 0 0 0 0 0 0 0 0 0 0 0 0 0 0 0 0 0 0 0 0 0 0 0 0 0 0 0 0 0 0 0 0 0 0 0 0 0
0 0 0 0 0 0 0 0 0 0 0 0 0 0 0 0 0 0 0 0 0 0 0 0 0 0 0 0 0 0 0 0 0 0 0 0 0 0 0 0 0 0 0
0 0 0 0 0 0 0 0 0 0 0 0 0 0 0 0 0 0 0 0 0 0 0 0 0 0 0 0 0 0 0 0 0 0 0 0 0 0 0 0 0 0 0
0 0 0 0 0 0 0 0 0 0 0 0 0 0 0 0 0 0 0 0 0 0 0 0 0 0 0 0 0 0 0 0 0 0 0 0 0 0 0 0 0 0 0
0 0 0 0 0 0 0 0 0 0 0 0 0 0 0 0 0 0 0 0 0 0 0 0 0 0 0 0 0 0 0 0 0 0 0 0 0 0 0 0 0 0 0
0 0 0 0 0 0 0 0 0 0 0 0 0 0 0 0 0 0 0 0 0 0 0 0 0 0 0 0 0 0 0 0 0 0 0 0 0 0 0 0 0 0 0
0 0 0 0 0 0 0 0 0 0 0 0 0 0 0 0 0 0 0 0 0 0 0 0 0 0 0 0 0 0 0 0 0 0 0 0 0 0 0 0 0 0 0
0 0 0 0 0 0 0 0 0 0 0 0 0 0 0 0 0 0 0 0 0 0 0 0 0 0 0 0 0 0 0 0 0 0 0 0 0 0 0 0 0 0 0
0 0 0 0 0 0 0 0 0 0 0 0 0 0 0 0 0 0 0 0 0 0 0 0 0 0 0 0 0 0 0 0 0 0 0 0 0 0 0 0 0 0 0
0 0 0 0 0 0 0 0 0 0 0 0 0 0 0 0 0 0 0 0 0 0 0 0 0 0 0 0 0 0 0 0 0 0 0 0 0 0 0 0 0 0 0
0 0 0 0 0 0 0 0 0 0 0 0 0 0 0 0 0 0 0 0 0 0 0 0 0 0 0 0 0 0 0 0 0 0 0 0 0 0 0 0 0 0 0
0 0 0 0 0 0 0 0 0 0 0 0 0 0 0 0 0 0 0 0 0 0 0 0 0 0 0 0 0 0 0 0 0 0 0 0 0 0 0 0 0 0 0
0 0 0 0 0 0 0 0 0 0 0 0 0 0 0 0 0 0 0 0 0 0 0 0 0 0 0 0 0 0 0 0 0 0 0 0 0 0 0 0 0 0 0
0 0 0 0 0 0 0 0 0 0 0 0 0 0 0 0 0 0 0 0 0 0 0 0 0 0 0 0 0 0 0 0 0 0 0 0 0 0 0 0 0 0 0
0 0 0 0 0 0 0 0 0 0 0 0 0 0 0 0 0 0 0 0 0 0 0 0 0 0 0 0 0 0 0 0 0 0 0 0 0 0 0 0 0 0 0
0 0 0 0 0 0 0 0 0 0 0 0 0 0 0 0 0 0 0 0 0 0 0 0 0 0 0 0 0 0 0 0 0 0 0 0 0 0 0 0 0 0 0
0 0 0 0 0 0 0 0 0 0 0 0 0 0 0 0 0 0 0 0 0 0 0 0 0 0 0 0 0 0 0 0 0 0 0 0 0 0 0 0 0 0 0
0 0 0 0 0 0 0 0 0 0 0 0 0 0 0 0 0 0 0 0 0 0 0 0 0 0 0 0 0 0 0 0 0 0 0 0 0 0 0 0 0 0 0
0 0 0 0 0 0 0 0 0 0 0 0 0 0 0 0 0 0 0 0 0 0 0 0 0 0 0 0 0 0 0 0 0 0 0 0 0 0 0 0 0 0 0
0 0 0 0 0 0 0 0 0 0 0 0 0 0 0 0 0 0 0 0 0 0 0 0 0 0 0 0 0 0 0 0 0 0 0 0 0 0 0 0 0 0 0
0 0 0 0 0 0 0 0 0 0 0 0 0 0 0 0 0 0 0 0 0 0 0 0 0 0 0 0 0 0 0 0 0 0 0 0 0 0 0 0 0 0 0
0 0 0 0 0 0 0 0 0 0 0 0 0 0 0 0 0 0 0 0 0 0 0 0 0 0 0 0 0 0 0 0 0 0 0 0 0 0 0 0 0 0 0
0 0 0 0 0 0 0 0 0 0 0 0 0 0 0 0 0 0 0 0 0 0 0 0 0 0 0 0 0 0 0 0 0 0 0 0 0 0 0 0 0 0 0
Wind_Speed
6 6 6 7 7 7 7 7 6 4 4 3 3 3 2 2 1 1 2 2 3 3 3 3 3 3 4 4 5 4 5 4 3 4 6 6 9 11 11 10 10 10 10
7 6 6 6 6 6 7 7 6 5 5 4 3 2 2 1 1 1 2 3 3 3 3 4 3 4 4 5 5 5 4 4 3 3 3 5 5 6 9 8 8 9 8
8 7 7 7 7 6 6 6 6 6 6 5 4 3 2 1 0 1 1 3 3 3 3 4 4 4 4 4 5 5 6 5 4 4 4 4 5 5 4 5 5 5 5
8 8 8 7 7 6 6 7 7 6 5 5 4 3 2 1 1 1 1 2 3 3 3 3 4 4 4 5 5 5 5 5 5 4 5 7 5 5 6 4 4 5 6
9 8 8 8 7 5 5 6 6 6 5 4 4 2 1 1 1 1 1 1 1 2 2 3 3 4 4 5 5 5 5 5 6 5 5 6 6 7 8 10 6 6 6
9 8 7 8 6 5 5 5 6 5 4 4 3 3 3 2 2 2 2 2 1 1 2 2 3 4 4 5 5 5 6 6 7 6 6 6 6 6 7 10 9 8 6
9 9 8 7 7 6 5 5 6 5 4 4 3 3 2 2 1 1 2 2 2 2 2 2 2 3 4 5 5 5 6 7 7 8 7 7 8 7 7 10 11 11 7
9 9 8 8 7 7 6 5 6 5 4 3 3 2 2 1 1 1 2 2 2 2 3 3 4 5 5 5 5 5 6 6 7 9 9 7 7 7 7 8 9 13 11
10 9 8 8 7 6 5 6 5 4 4 3 2 2 2 1 1 2 2 2 3 3 4 4 5 6 6 6 6 5 7 7 7 8 8 8 7 7 7 7 7 10 16
10 9 8 8 7 6 5 5 5 4 3 3 2 1 1 1 2 2 3 4 4 4 5 6 6 6 7 7 6 6 7 7 7 6 8 8 7 6 6 7 7 7 11
10 9 8 7 7 7 6 5 4 3 2 2 1 1 1 2 3 3 4 4 4 5 6 6 6 7 7 7 7 7 8 8 8 8 9 9 9 7 6 6 6 7 8
9 9 8 8 7 6 5 4 3 3 2 1 1 1 2 3 3 4 4 5 5 6 6 7 7 8 8 8 8 8 8 8 9 9 9 10 8 9 7 7 8 8 8
8 8 8 7 7 6 5 4 3 3 2 1 1 2 3 3 4 5 5 5 6 7 7 7 8 8 8 9 8 9 9 9 9 9 9 10 10 11 9 9 9 8 10
8 8 7 6 6 5 4 4 3 3 2 0 1 3 4 4 5 5 6 6 7 7 8 8 8 9 9 9 9 9 9 9 9 9 10 10 11 12 12 11 11 10 10
8 8 7 6 5 5 4 3 2 2 1 1 2 4 4 5 5 6 6 7 7 8 8 9 9 9 8 8 9 8 9 9 10 10 10 12 17 21 18 14 10 10 10
8 8 7 6 5 4 4 3 2 1 0 2 3 4 5 5 6 7 7 8 8 8 9 9 9 9 9 17 23 18 10 9 10 10 10 12 15 19 25 27 25 21 14
8 8 6 5 5 4 4 2 1 0 1 3 4 5 6 6 7 7 8 8 8 9 9 9 9 10 12 21 24 24 15 10 9 10 10 11 13 19 12 18 24 22 25
8 7 6 5 4 4 3 2 1 1 3 4 5 6 6 7 7 7 8 8 8 8 8 9 9 10 13 22 24 24 14 10 10 10 10 12 12 13 15 12 12 12 13
7 6 6 5 4 3 2 2 2 3 4 6 7 6 6 7 7 8 9 8 8 8 8 9 9 10 13 20 24 24 10 9 10 10 11 13 12 19 26 17 13 13 12
7 6 5 4 3 2 2 1 3 4 6 6 6 6 6 7 8 9 9 8 8 9 9 9 9 11 11 18 23 23 9 9 9 9 10 17 20 24 26 15 12 14 12
7 5 4 3 2 2 1 3 5 6 6 6 6 6 7 8 9 8 8 8 8 9 9 10 9 9 12 17 22 23 11 9 10 9 8 9 22 26 27 23 14 17 18
5 4 3 2 2 1 2 4 6 6 6 6 7 7 8 8 7 8 8 8 8 9 9 9 10 7 9 14 18 23 22 21 13 10 8 11 23 27 27 21 20 26 22
4 3 2 2 2 3 3 5 6 6 6 7 8 8 8 8 7 8 8 8 7 7 8 8 9 9 6 10 21 24 25 25 16 11 19 24 27 26 18 19 25 20 9
3 2 2 2 3 4 4 6 6 6 6 8 8 7 8 8 7 7 6 7 7 7 8 9 10 10 8 7 7 8 11 17 15 12 17 24 24 19 18 17 12 7 6
2 2 2 3 5 5 6 6 6 6 7 8 8 7 7 8 8 7 7 8 8 9 11 9 9 11 12 13 22 18 11 10 12 14 10 9 8 7 7 6 6 5 5
2 2 3 5 6 6 7 7 6 6 7 7 7 6 6 6 7 8 9 13 15 22 23 23 21 16 21 27 28 27 27 27 26 18 9 9 8 8 7 7 6 5 5
Wind_Direction
101 90 86 86 86 91 103 113 121 122 113 114 123 126 130 127 137 202 232 233 233 235 230 230 235 236 241 243 242 245 253 257 257 277 284 270 254 251 251 248 246 243 240
113 107 99 92 92 95 101 108 113 113 107 106 107 108 114 132 161 192 222 238 243 241 234 231 235 238 245 254 253 249 253 258 241 242 291 303 299 258 248 245 240 239 234
129 118 105 96 87 84 91 100 101 101 100 105 100 91 87 66 165 216 227 234 238 240 235 237 239 242 239 246 249 243 242 252 249 215 218 258 271 308 296 281 264 251 243
124 119 111 101 94 89 89 95 98 99 103 111 115 133 145 166 200 194 209 230 227 226 227 236 243 247 245 249 250 244 238 240 250 247 230 231 236 272 294 283 285 290 274
128 122 117 114 109 105 102 103 103 103 105 105 111 109 93 85 47 27 347 309 286 243 233 239 250 256 254 254 256 258 250 239 240 240 242 250 252 245 260 277 271 266 258
132 127 123 119 116 113 110 112 110 108 104 99 100 91 76 41 18 354 343 320 303 283 263 248 251 259 260 259 257 255 254 250 249 247 241 240 242 244 250 267 270 268 260
142 143 143 137 135 134 131 124 117 114 110 102 93 92 83 51 19 354 350 336 324 314 300 298 278 272 265 263 260 258 256 254 252 250 250 247 248 246 252 265 275 276 272
153 154 152 145 143 143 140 127 119 114 104 97 87 79 73 53 13 352 327 309 296 293 306 311 294 284 279 275 268 262 257 257 253 256 255 253 252 248 248 256 273 282 281
157 156 153 149 147 146 137 126 122 114 103 94 80 64 50 29 350 326 309 296 292 293 298 292 285 281 278 274 271 264 262 260 256 256 256 256 255 251 252 250 248 268 283
158 157 155 152 147 139 126 120 117 115 109 93 82 56 9 4 337 315 301 294 293 294 293 288 283 281 279 276 274 271 267 267 265 261 261 262 260 256 252 250 251 250 266
162 159 156 148 138 130 129 126 122 119 109 93 68 26 344 331 314 298 292 295 295 297 294 291 290 288 285 283 280 278 279 277 277 277 274 271 269 267 261 258 256 256 257
158 155 149 142 138 139 141 139 135 126 115 94 35 336 316 309 303 299 300 303 300 297 294 292 289 286 286 284 283 283 284 282 283 283 283 282 284 279 273 267 263 262 258
150 147 145 146 145 145 145 140 136 128 116 90 337 310 306 306 300 299 301 301 297 293 290 288 285 285 285 284 280 278 277 276 277 280 282 284 285 282 277 272 269 267 268
150 148 146 146 142 141 138 134 128 119 112 68 300 296 296 296 294 295 296 293 290 289 287 285 282 281 280 279 277 276 275 274 273 272 272 274 274 275 275 274 270 269 268
152 150 149 145 140 139 134 126 121 116 109 292 287 284 288 292 293 291 289 288 286 285 283 282 281 279 278 278 278 275 271 271 273 272 269 270 275 276 278 276 270 263 264
156 151 147 143 144 141 131 124 131 128 116 286 283 286 290 289 287 285 284 284 284 283 282 281 282 282 285 293 295 295 283 274 275 278 276 277 282 283 284 284 284 281 275
149 148 148 144 138 131 127 137 144 126 283 277 278 280 281 281 280 281 284 284 284 283 283 283 284 284 286 295 298 298 296 284 280 279 281 286 285 290 282 282 284 283 282
142 141 137 129 123 119 123 129 142 266 269 271 272 272 271 274 277 280 281 282 281 283 285 287 286 286 290 299 301 302 297 285 280 277 278 279 279 279 283 276 272 268 271
131 129 127 127 129 138 150 163 236 260 266 267 267 267 269 275 280 282 281 281 284 286 285 284 286 287 291 298 301 302 291 283 279 277 278 282 280 283 289 286 278 276 272
113 116 119 123 142 167 161 201 254 263 266 266 268 273 277 278 279 279 280 281 282 282 284 284 283 284 286 295 301 302 292 287 284 280 276 283 287 289 291 287 280 280 279
117 121 130 146 174 178 180 248 262 264 266 272 279 280 277 275 276 277 277 279 279 281 283 284 284 283 287 298 301 302 298 287 287 286 284 279 290 292 293 292 284 281 284
131 138 146 174 193 201 232 256 263 266 274 278 278 277 276 277 281 278 279 278 280 284 285 286 288 281 285 292 296 298 299 299 294 290 287 284 292 294 295 295 291 292 295
149 152 165 207 239 242 245 262 270 277 280 279 277 277 278 277 276 277 281 283 281 281 284 284 287 288 279 284 294 297 299 299 296 288 291 296 299 300 298 294 295 296 293
159 164 185 237 260 266 267 264 271 275 277 278 279 279 281 282 279 277 277 279 279 280 283 285 288 290 286 280 280 279 288 292 292 290 289 294 296 294 292 293 295 286 275
166 178 213 246 263 272 274 273 274 277 278 277 278 280 279 280 282 277 272 278 267 273 286 284 282 289 292 288 295 298 293 289 285 292 286 284 286 283 282 282 282 277 282
177 212 240 253 263 269 274 276 275 273 276 279 279 278 278 279 279 283 286 278 278 289 290 290 291 290 291 298 300 301 301 302 300 300 291 290 288 288 290 290 287 280 278